Location: Brienzwiler
(46.7508°N, 8.1014°E)
Time: 17:03:17
(UTC+00:00)

SL-16 R/B - Pass Details

Date: 05 July 2020
Orbit: 839 x 850 km, 71.0° (Epoch: 10 August)

Event Time Altitude Azimuth Distance (km) Brightness Sun altitude
Exits shadow 23:00:44 39° 186° (S) 1,254 2.6 -20.2°
Maximum altitude 23:02:53 72° 113° (ESE) 892 2.2 -20.3°
Drops below altitude 10° 23:08:33 10° 30° (NNE) 2,481 5.4 -20.4°
Sets 23:11:01 0° 29° (NNE) 3,421 6.3 -20.4°
